Simultaneous Nadir Overpasses (SNOs) Predictions

Prediction of SNOs between AURA and NPP Satellite Orbit:

Table of predicted SNOs for the next 14.0 days since TLE Epoch: 5/24/2012
Index Date (AURA) Time (AURA) AURA Lat,Lon Date (NPP) Time (NPP) NPP Lat,Lon Distance(km) Time Diff (sec)
1 05/26/2012 19:58:14 79.64, 138.14 05/26/2012 19:57:04 79.64, 138.17 0.52 70
2 05/26/2012 20:47:35 -79.87, -52.52 05/26/2012 20:47:42 -79.87, -52.40 2.40 7
3 05/29/2012 12:14:40 79.67,-105.77 05/29/2012 12:13:56 79.66,-105.90 2.75 44
4 05/29/2012 13:04:01 -79.90, 63.59 05/29/2012 13:04:34 -79.89, 63.56 0.58 33
5 06/01/2012 04:31:04 79.75, 10.70 06/01/2012 04:30:46 79.74, 10.59 2.21 18
6 06/01/2012 05:20:25 -79.97,-179.91 06/01/2012 05:21:24 -79.97,-179.89 0.35 59
7 06/03/2012 19:58:08 -79.60, -42.17 06/03/2012 19:56:59 -79.59, -42.23 1.26 69
8 06/03/2012 20:47:26 79.88, 127.57 06/03/2012 20:47:34 79.88, 127.68 2.13 8
9 06/06/2012 12:14:29 -79.71, 74.52 06/06/2012 12:13:47 -79.71, 74.55 0.51 42




NCC Satellite Simultaneous Nadir Overpasses (SNOs) Prediction Service
